Regional Weather Roundup
Issued by NWS

Home | Current Version | Previous Version | Graphics & Text | Print | Product List | Glossary On
Versions: 1 2 3 4 5 6 7 8 9 10 11 12 13 14 15 16 17 18 19 20 21 22 23 24 25 26 27
000
ASUS45 KCYS 180410
RWRWY

WYOMING REGIONAL WEATHER ROUNDUP
NATIONAL WEATHER SERVICE CHEYENNE WY
900 PM MST FRI NOV 17 2017

NOTE:  "FAIR" INDICATES FEW OR NO CLOUDS BELOW 12,000 FEET
WITH NO SIGNIFICANT WEATHER AND/OR OBSTRUCTIONS TO VISIBILITY.

WYZ001-180500-
YELLOWSTONE NATIONAL PARK

CITY           SKY/WX    TMP DP  RH WIND       PRES   REMARKS
LK YELLOWSTONE   N/A      7   4  87 NW3       30.04R
W YELLOWSTONE  NOT AVBL

$$
WYZ002>013-054>058-071-098>099-180500-
NORTHERN WYOMING

CITY           SKY/WX    TMP DP  RH WIND       PRES   REMARKS
JACKSON        CLOUDY    25  10  53 W17G30    30.07R WCI  12
CODY           FAIR      30  13  49 W7        29.98R WCI  23
GREYBULL       FAIR      34  17  50 NW12      29.96R WCI  25
WORLAND        FAIR      33  20  58 N8        29.96R WCI  26
SHERIDAN       FAIR      28  20  71 W6        29.93R WCI  22
BUFFALO        FAIR      27  13  55 W12       29.91R WCI  17
GILLETTE       FAIR      33  26  75 NW16      29.88R WCI  23
HULETT         FAIR      34  27  75 CALM      29.87R
NEWCASTLE      FAIR      34  32  93 NW13      29.85R WCI  25

$$
WYZ014>020-022>026-101>103-180500-
CENTRAL WYOMING

CITY           SKY/WX    TMP DP  RH WIND       PRES   REMARKS
BIG PINEY      FAIR      17  10  74 NW15      30.06R WCI   2
PINEDALE       FAIR      19  12  73 NW12      30.05R WCI   7
DUBOIS         FAIR      19  10  68 NW21G31   29.98R WCI   3
LANDER         FAIR      31  10  41 N13       29.96R WCI  21
RIVERTON       FAIR      27  20  75 NW9       29.98R WCI  18
CASPER         CLOUDY    27  25  92 SW6       29.93R WCI  20
DOUGLAS        LGT SNOW  30  29  96 N20G28    29.92R FOG     WCI  17

$$
WYZ021-027>030-104>119-180500-
SOUTHERN WYOMING

CITY           SKY/WX    TMP DP  RH WIND       PRES   REMARKS
EVANSTON       FAIR      20  13  74 W14       30.13R WCI   7
FORT BRIDGER   MOCLDY    21  19  93 W16       30.14R WCI   7
ROCK SPRINGS   FAIR      22  16  78 W18G28    30.06R WCI   7
DIXON          FAIR      27  20  77 W13G18    30.05R WCI  16
RAWLINS        LGT SNOW  26  23  88 NW22      29.96R WCI  12
LARAMIE        FAIR      27  23  85 W12       29.83S WCI  17
CHEYENNE       FAIR      35  22  58 NW12G24   29.79R WCI  27
TORRINGTON     CLOUDY    36  33  89 NW8       29.83R WCI  30
PINE BLUFFS    CLOUDY    34  32  93 NW25      29.79R WCI  21

$$




USA.gov is the U.S. government's official web portal to all federal, state and local government web resources and services.